Home > Weather > Tianjin > Past weeks

Flag for China Past Weather in Tianjin, Tianjin Municipality, China — Yesterday and Last 2 Weeks

Now
86 °F

Passing clouds.


Feels Like: 84 °F
Forecast: 72 / 91 °F
Wind: 6 mph from Southwest

Location: Tianjin / Zhangguizhu

Current Time: Jun 26, 2016 at 8:58:14 AM

Latest Report: Jun 26, 2016 at 8:30 AM


Visibility: N/A

Pressure: 29.71 "Hg

Humidity: 31%

Dew Point: 52 °F

Location of TianjinLocation

Past Weather in Tianjin — Graph

°F

Tianjin Temperature Yesterday

Maximum temperature yesterday: 95 °F (at 2:30 PM)
Minimum temperature yesterday: 70 °F (at 5:00 AM)
Average temperature yesterday: 83 °F

High & Low Weather Summary for the Past Weeks

 TemperatureHumidityPressure
High95 °F (Jun 16, 4:00 PM)94% (Jun 20, 3:30 AM)29.80 "Hg (Jun 20, 3:30 AM)
Low61 °F (Jun 15, 4:00 AM)16% (Jun 16, 4:30 PM)29.36 "Hg (Jun 17, 3:30 AM)
Average78 °F58%29.61 "Hg
* Reported Jun 11 7:00 AM — Jun 26 7:30 AM, Tianjin, Weather by CustomWeather, © 2016

Note: Actual official high and low records may vary slightly from our data, if they occured in-between our weather recording intervals... More about our weather records

Advertising

Tianjin Weather History for the Previous 24 Hours

Scroll right to see more
 ConditionsComfort  
Time TempWeatherWind HumidityBarometerVisibility
7:30 AM
Sun, Jun 26
82 °FPassing clouds.6 mph35%29.74 "HgN/A
7:00 AM81 °FSunny.8 mph34%29.74 "Hg10 mi
6:30 AM79 °FSunny.8 mph37%29.74 "Hg10 mi
6:00 AM77 °FSunny.3 mph39%29.74 "Hg10 mi
5:30 AM77 °FPassing clouds.6 mph39%29.74 "HgN/A
5:00 AM77 °FSunny.8 mph39%29.74 "Hg10 mi
4:30 AM79 °FClear.8 mph37%29.74 "Hg10 mi
4:00 AM79 °FPassing clouds.6 mph39%29.74 "HgN/A
3:30 AM77 °FClear.3 mph42%29.74 "Hg10 mi
3:00 AM77 °FClear.3 mph42%29.71 "Hg10 mi
2:30 AM77 °FClear.6 mph42%29.74 "Hg10 mi
2:00 AM77 °FClear.3 mph44%29.74 "Hg10 mi
1:30 AM79 °FClear.6 mph39%29.74 "Hg10 mi
1:00 AM79 °FClear.6 mph39%29.74 "Hg10 mi
12:30 AM79 °FClear.6 mph39%29.74 "Hg10 mi
12:00 AM82 °FClear.6 mph32%29.74 "Hg10 mi
11:30 PM
Sat, Jun 25
82 °FPassing clouds.6 mph30%29.74 "HgN/A
11:00 PM84 °FClear.8 mph29%29.74 "Hg10 mi
10:30 PM84 °FClear.8 mph29%29.74 "Hg10 mi
10:00 PM84 °FClear.8 mph31%29.74 "Hg10 mi
9:30 PM84 °FClear.6 mph31%29.74 "Hg10 mi
9:00 PM84 °FClear.6 mph31%29.71 "Hg10 mi
8:30 PM82 °FClear.3 mph35%29.71 "Hg10 mi
8:00 PM86 °FClear.6 mph33%29.71 "Hg10 mi
7:30 PM84 °FSunny.8 mph33%29.71 "Hg10 mi
7:00 PM86 °FSunny.6 mph31%29.71 "Hg10 mi
6:30 PM88 °FSunny.6 mph31%29.68 "Hg10 mi
6:00 PM91 °FSunny.3 mph26%29.68 "Hg10 mi
5:30 PM93 °FPassing clouds.3 mph20%29.68 "HgN/A
5:00 PM93 °FPassing clouds.3 mph20%29.68 "HgN/A
4:30 PM93 °FSunny.6 mph19%29.68 "Hg10 mi
4:00 PM93 °FPassing clouds.8 mph19%29.68 "HgN/A
3:30 PM95 °FPassing clouds.3 mph22%29.68 "HgN/A
3:00 PM93 °FPassing clouds.8 mph19%29.68 "HgN/A
2:30 PM95 °FPassing clouds.3 mph20%29.71 "HgN/A
2:00 PM93 °FPassing clouds.6 mph20%29.71 "HgN/A
1:30 PM93 °FPassing clouds.6 mph20%29.71 "HgN/A
1:00 PM91 °FPassing clouds.6 mph21%29.71 "HgN/A
12:30 PM91 °FSunny.6 mph23%29.71 "Hg10 mi
12:00 PM90 °FPassing clouds.8 mph22%29.74 "HgN/A
11:30 AM90 °FSunny.8 mph22%29.74 "Hg10 mi
11:00 AM90 °FPassing clouds.8 mph22%29.74 "HgN/A
10:30 AM88 °FSunny.8 mph24%29.74 "Hg10 mi
10:00 AM86 °FSunny.10 mph29%29.77 "Hg10 mi
9:30 AM86 °FSunny.8 mph29%29.77 "Hg10 mi
9:00 AM82 °FSunny.10 mph32%29.77 "Hg10 mi
8:30 AM81 °FSunny.13 mph34%29.77 "Hg10 mi
8:00 AM79 °FSunny.13 mph34%29.77 "Hg10 mi
Weather by CustomWeather, © 2016

See weather overviewHow to use our weather pages